Regional Weather Roundup
Issued by NWS Grand Forks, ND

Home | Current Version | Previous Version | Text Only | Print | Product List | Glossary Off
Versions: 1 2 3 4 5 6 7 8 9 10 11 12 13 14 15 16 17 18 19 20 21 22 23 24 25 26 27 28 29 30 31 32 33 34 35 36 37 38 39 40 41 42 43 44 45 46 47 48 49 50

000
ASUS43 KFGF 022231
RWRFGF
PRAIRIE TO PINES  WEATHER ROUNDUP
NATIONAL WEATHER SERVICE EASTERN NORTH DAKOTA/GRAND FORKS ND
500 PM CDT SAT MAY 02 2015

 **SATELLITE DATA USED TO AUGMENT SKY COVER AT AUTOMATED STATIONS**
 *****  WEATHER ACROSS EASTERN NORTH DAKOTA  *****

CITY           SKY/WX    TMP DP  RH WIND       PRES   REMARKS
GRAND FORKS    RAIN      70  48  46 SW10      29.63S
GRAND FRKS AFB LGT RAIN  68  54  60 S21       29.61F
GRAND FRKS NWS   N/A     70 N/A N/A SW18        N/A
DEVILS LAKE    MOSUNNY   81  41  24 SW8       29.53S
FARGO          MOSUNNY   85  29  13 S24       29.59F
WAHPETON ARPT  CLEAR     82  28  14 S20G26    29.62F
$$

 ***** WEATHER ACROSS CENTRAL AND WESTERN NORTH DAKOTA  *****

CITY           SKY/WX    TMP DP  RH WIND       PRES   REMARKS
BISMARCK       MOSUNNY   85  36  17 W18G25    29.60S
MINOT          SUNNY     77  31  18 W17G23    29.58S
JAMESTOWN      PTSUNNY   79  33  19 SW20G30   29.57F THUNDER
MINOT AFB      SUNNY     77  34  21 NW16      29.58R
GARRISON         N/A     81  26  13 NW25G35   29.60S
WILLISTON      SUNNY     76  30  18 NW13      29.65S
DICKINSON      MOSUNNY   76  25  15 W20G30    29.65S
HETTINGER      PTSUNNY   75  26  16 W14       29.69F
$$

 *****  OTHER AIRPORT OBSERVATIONS IN OUR AREA  *****

CITY           SKY/WX    TMP DP  RH WIND       PRES   REMARKS
WALHALLA       FAIR      79  39  24 S9        29.52S
GRAFTON AIRPOR FAIR      68  52  56 E9        29.58S
VALLEY CITY AR TSTM      72  46  40 W21G32    29.60R
CANDO          FAIR      82  34  17 NW13G20   29.54S
CAVALIER APRT  FAIR      77  43  29 S18G26    29.53F
GWINNER        CLEAR     88  43  20 S22       29.60F
ROLLA          NOT AVBL
 ***** THE ABOVE OBSERVATIONS ARE NON NWS ARE NOT QUALITY
       CONTROLLED AND MAY MIS-REPORT RAIN FOR SNOW...
$$

  *****  WEATHER ACROSS NORTHERN MINNESOTA  *****

CITY           SKY/WX    TMP DP  RH WIND       PRES   REMARKS
FLAG ISLAND    PTSUNNY   57  45  62 S13       29.54F
WARROAD        PTSUNNY   79  39  24 SW16G22   29.58R
ROSEAU         PTSUNNY   77  34  20 SW23G37   29.61R HAZE
HALLOCK        CLOUDY    73  37  27 S30       29.57R
THF RVR FALLS  CLOUDY    75  37  25 W20G30    29.63R
BAUDETTE       PTSUNNY   80  33  18 S16G28    29.59F
WASKISH        MOSUNNY   81  37  21 S8G20     29.63S
CROOKSTON      CLOUDY    75  39  27 W13G26    29.64R
STEPHEN NDAWN    N/A     66  54  63 S10         N/A
GREENBUSH NDAW   N/A     73  39  29 SW32        N/A
$$
  *****  WEATHER ACROSS CENTRAL AND WEST MINNESOTA  *****

CITY           SKY/WX    TMP DP  RH WIND       PRES   REMARKS
FOSSTON        NOT AVBL
BEMIDJI        MOSUNNY   78  35  21 S16G25    29.66S
PARK RAPIDS    SUNNY     80  31  16 S17       29.69F
ELBOW LAKE     FAIR      82  39  22 S17G26    29.66F
WADENA         SUNNY     79  41  25 S18G24    29.69F
DETROIT LAKES  SUNNY     79  37  22 S18G26    29.68S
MOORHEAD       MOSUNNY   84  27  12 SW15G26   29.60F
FERGUS FALLS   SUNNY     82  39  21 S20       29.65F
MORRIS MN      SUNNY     84  37  18 S14G20    29.67F
STAPLES        SUNNY     79  37  22 S15G21    29.71F
$$
  *****  WEATHER ELSEWHERE ACROSS MINNESOTA  *****

CITY           SKY/WX    TMP DP  RH WIND       PRES   REMARKS
DULUTH         MOSUNNY   75  40  28 S13       29.77F
INTRNTL FALLS  CLOUDY    81  31  16 SW9       29.62F
ELY            PTSUNNY   77  30  18 SW13      29.71F
CLOQUET        SUNNY     77  28  16 S12       29.76F
WHEATON        SUNNY     82  37  20 S17       29.65F
BRAINERD       SUNNY     78  38  23 SW16      29.73F
HIBBING        MOSUNNY   79  35  20 SW13G20   29.71F
ALEXANDRIA     SUNNY     79  37  22 S13G22    29.72F
SAINT CLOUD    SUNNY     78  42  27 S14       29.75F
MINNEAPOLIS    MOSUNNY   80  42  25 SW10      29.77F
$$

  *****  WEATHER ACROSS SOUTH DAKOTA  *****

CITY           SKY/WX    TMP DP  RH WIND       PRES   REMARKS
SIOUX FALLS    MOSUNNY   79  45  29 S14       29.75F
BROOKINGS      PTSUNNY   82  39  21 S17G23    29.73S
WATERTOWN      MOSUNNY   82  43  25 SW18G24   29.69F
HURON          SUNNY     84  39  20 S14G24    29.66F
SISSETON         N/A     85  35  16 SW15      29.63F
ABERDEEN       PTSUNNY   87  36  16 S18G33    29.62F
MITCHELL       MOSUNNY   84  45  25 S17       29.70F
PIERRE         MOSUNNY   85  32  15 S9        29.62F
MOBRIDGE       PTSUNNY   86  29  12 SW9       29.57F
RAPID CITY     MOSUNNY   82  36  19 N20       29.70S
$$

  *****  SOME WEATHER IN NEARBY STATES *****

CITY           SKY/WX    TMP DP  RH WIND       PRES   REMARKS
GLASGOW MT     SUNNY     71  37  28 NW14G23   29.70S
GREAT FALLS MT MOSUNNY   67  30  25 N12G17    29.77F
CHEYENNE WY    PTSUNNY   69  32  25 SW9       29.92F
SCOTTSBLUFF NE MOSUNNY   82  33  17 W10       29.78F
OMAHA NE       MOSUNNY   72  56  57 S21G28    29.82F
DES MOINES IA  LGT RAIN  63  54  72 S18       29.89F
DAVENPORT IA   MOSUNNY   76  38  25 SW17      29.95F
CHICAGO IL     MOSUNNY   75  36  24 W14G22    29.95F
EAU CLAIRE WI  MOSUNNY   79  42  26 SW14G23   29.80F
LA CROSSE WI   SUNNY     80  41  24 S14G24    29.83F
$$

  *****  SOME NATIONAL WEATHER *****

CITY           SKY/WX    TMP DP  RH WIND       PRES   REMARKS
LA GUARDIA NY  MOSUNNY   56  40  55 S12       29.96R
RALEIGH NC     PTSUNNY   71  49  45 N7        30.04R
ATLANTA GA     MOSUNNY   75  47  36 W7        30.04F
NEW ORLEANS LA MOSUNNY   82  48  30 N6        30.03F
OKLAHOMA CITY  PTSUNNY   80  54  40 S13       29.94F
ALBUQUERQUE NM CLOUDY    74  29  19 NW17G28   30.00F
SALT LAKE CITY PTSUNNY   81  27  14 NW10      29.83F
LOS ANGELES CA MOSUNNY   66  52  60 W18       29.85F
BOISE ID       SUNNY     79  28  15 NW12G18   29.82F
SEATTLE WA     MOSUNNY   64  40  41 NW13      30.05F
$$

*** WEATHER ACROSS MANITOBA...SASKATCHEWAN AND ONTARIO ***
                ***ONTARIO***

CITY           SKY/WX    TMP DP  RH WIND       PRES   REMARKS
GERALDTON      MOSUNNY   70  37  30 S15       29.78S
THUNDER BAY    PTSUNNY   59  43  55 NE12      29.78
SIOUX LOOKOUT  PTSUNNY   77  39  25 SW10G17   29.61F
TORONTO        PTSUNNY   70  41  35 S10G17    29.95F
BIG TROUT LK   CLOUDY    66  39  37 SW5       29.45F
PICKLE LAKE    PTSUNNY   73  32  21 SW20G29   29.57F
DRYDEN         MOSUNNY   79  30  17 SW14      29.59F
KENORA         LGT RAIN  75  34  22 SW14G20   29.59S
$$
                *** MANITOBA***

CITY           SKY/WX    TMP DP  RH WIND       PRES   REMARKS
BRANDON        PTSUNNY   73  36  25 NW21G29   29.59R
DAUPHIN        SUNNY     70  39  32 N17G25    29.58R
ISLAND LAKE    MOSUNNY   57  41  54 NW9       29.42R
PILOT MOUND      N/A     77  28  16 W12G18      N/A
THE PAS        PTSUNNY   55  41  58 NW5       29.60S
THOMPSON       LGT RAIN  55  36  47 W7        29.54S
WINNIPEG       CLOUDY    81  34  18 W23G37    29.50S
LYNN LAKE      PTSUNNY   55  28  35 N12       29.55S
CHURCHILL      CLOUDY    32  30  93 N20G29    29.67R WCI  20
GILLAM         CLOUDY    50  36  57 N8        29.48F
$$
                ***SASKATCHEWAN***

CITY           SKY/WX    TMP DP  RH WIND       PRES   REMARKS
ESTEVAN        MOSUNNY   70  34  26 W17       29.67R
KINDERSLEY     MOSUNNY   54  25  32 W18G28    29.79R
LLOYDMINSTER   PTSUNNY   50  27  40 NW18G29   29.76S
PRINCE ALBERT  LGT RAIN  61  27  27 NW13G22   29.66
REGINA         CLOUDY    59  36  41 W14G20    29.71F
YORKTON        MOSUNNY   61  32  33 NW13G22   29.64F
N. BATTLEFORD  MOSUNNY   50  34  53 W12       29.77F
LA RONGE       LGT RAIN  55  28  35 NW20      29.62S
SASKATOON      PTSUNNY   54  34  47 NW20G31   29.73R
SWIFT CURRENT  CLOUDY    54  28  37 NW20      29.76S
$$
NOTE: THESE ARE AUTOMATED STATIONS WITH LIMITED QUALITY CONTROL
      "FAIR" INDICATES FEW OR NO CLOUDS BELOW 12,000 FEET WITH NO
      SIGNIFICANT WEATHER AND/OR OBSTRUCTIONS TO VISIBILITY.
      SKY/WX - SKY CONDITION AND SIGNIFICANT WEATHER.
      TMP - AIR TEMPERATURE.    DP   - DEWPOINT TEMPERATURE.
      RH  - RELATIVE HUMIDITY.  PRES - PRESSURE.
      HX  - HEAT INDEX.         WCI  - WIND CHILL INDEX.
$



USA.gov is the U.S. government's official web portal to all federal, state and local government web resources and services.